Salina, KS

1:49 PM CST on January 19, 2018 (GMT -0600)
Salina Municipal

Weather History for KSLN - December, 2010

Change the Weather History Date:

Tuesday, December 14, 2010

  Actual Average Record
Temperature  
Mean Temperature 32 °F 32 °F  
Max Temperature 42 °F 42 °F 69 °F (1933)
Min Temperature 22 °F 22 °F -10 °F (1963)
Degree Days  
Heating Degree Days 33 33  
Month to date heating degree days 448 435  
Since 1 July heating degree days 1296 1387  
Cooling Degree Days 0 0  
Month to date cooling degree days 0 0  
Year to date cooling degree days 1872 1647  
Moisture  
Dew Point 7 °F    
Average Humidity 36    
Maximum Humidity 47    
Minimum Humidity 24    
Precipitation  
Precipitation 0.00 in 0.03 in 0.56 in (1902)
Month to date precipitation T 0.49  
Year to date precipitation 27.60 31.05  
Sea Level Pressure  
Sea Level Pressure 30.01 in    
Wind  
Wind Speed 8 mph (SE)    
Max Wind Speed 14 mph    
Max Gust Speed 17 mph    
Visibility 10 miles    
Events      
T = Trace of Precipitation, MM = Missing Value Source: NWS Daily Summary

Daily Weather History Graph

Daily Weather History Graph

Search for Another Location

Airport or City:

Trip Planner

Search our weather history database for the weather conditions in past years. The results will help you decide how hot, cold, wet, or windy it might be!

Date:

Astronomy

Dec. 14, 2010 Rise Set
Actual Time 7:41 AM CST 5:09 PM CST
Civil Twilight 7:11 AM CST 5:39 PM CST
Nautical Twilight 6:37 AM CST 6:12 PM CST
Astronomical Twilight 6:05 AM CST 6:45 PM CST
Moon 12:47 PM CST (12/14) 1:05 AM CST (12/14)
Length of Visible Light 10h 28m
Length of Day
9h 28m
First Quarter, 61% of the Moon is Illuminated
Dec 14
First Quarter
Dec 21
Full
Dec 27
Last Quarter
Jan 4
New
Jan 12
First Quarter

Hourly Weather History & Observations

Time (CST) Temp. Windchill Dew Point Humidity Pressure Visibility Wind Dir Wind Speed Gust Speed Precip Events Conditions
1:53 AM 25.0 °F 16.3 °F -0.9 °F 33% 30.19 in 10.0 mi SSE 8.1 mph - N/A   Clear
2:53 AM 25.0 °F 17.1 °F -0.0 °F 34% 30.18 in 10.0 mi SE 6.9 mph - N/A   Clear
3:53 AM 24.1 °F 16.0 °F -0.0 °F 35% 30.17 in 10.0 mi SE 6.9 mph - N/A   Clear
4:53 AM 24.1 °F 16.0 °F 1.0 °F 37% 30.15 in 10.0 mi SE 6.9 mph - N/A   Clear
5:53 AM 23.0 °F 15.8 °F 1.9 °F 40% 30.13 in 10.0 mi SSE 5.8 mph - N/A   Clear
6:53 AM 23.0 °F 14.7 °F 1.9 °F 40% 30.11 in 10.0 mi SE 6.9 mph - N/A   Clear
7:53 AM 23.0 °F 15.8 °F 3.0 °F 42% 30.12 in 10.0 mi SE 5.8 mph - N/A   Clear
8:53 AM 24.1 °F 16.0 °F 3.0 °F 40% 30.13 in 10.0 mi SE 6.9 mph - N/A   Clear
9:53 AM 28.0 °F 18.1 °F 3.9 °F 36% 30.09 in 10.0 mi SSE 11.5 mph - N/A   Clear
10:53 AM 32.0 °F 24.8 °F 3.9 °F 31% 30.10 in 10.0 mi SSE 8.1 mph - N/A   Clear
11:53 AM 37.0 °F 29.8 °F 7.0 °F 29% 30.04 in 10.0 mi SSE 10.4 mph - N/A   Clear
12:53 PM 39.0 °F 32.8 °F 8.1 °F 28% 29.99 in 10.0 mi SSE 9.2 mph - N/A   Clear
1:53 PM 41.0 °F 35.8 °F 9.0 °F 27% 29.95 in 10.0 mi SSE 8.1 mph - N/A   Clear
2:53 PM 42.1 °F 36.1 °F 9.0 °F 26% 29.92 in 10.0 mi SE 10.4 mph - N/A   Clear
3:53 PM 41.0 °F 34.7 °F 10.0 °F 28% 29.90 in 10.0 mi SE 10.4 mph - N/A   Clear
4:53 PM 37.9 °F 32.1 °F 10.9 °F 33% 29.90 in 10.0 mi ESE 8.1 mph - N/A   Clear
5:53 PM 35.1 °F 29.3 °F 10.9 °F 37% 29.91 in 10.0 mi ESE 6.9 mph - N/A   Clear
6:53 PM 32.0 °F 24.2 °F 10.9 °F 42% 29.91 in 10.0 mi SE 9.2 mph - N/A   Clear
7:53 PM 32.0 °F 24.2 °F 10.9 °F 42% 29.90 in 10.0 mi SE 9.2 mph - N/A   Clear
8:53 PM 30.9 °F 22.8 °F 10.9 °F 43% 29.89 in 10.0 mi SE 9.2 mph - N/A   Clear
9:53 PM 30.9 °F 22.2 °F 12.0 °F 46% 29.88 in 10.0 mi SSE 10.4 mph - N/A   Clear
10:53 PM 30.0 °F 22.4 °F 12.9 °F 49% 29.86 in 10.0 mi SE 8.1 mph - N/A   Clear
11:53 PM 30.0 °F 22.4 °F 12.9 °F 49% 29.82 in 10.0 mi SE 8.1 mph - N/A   Clear